Weather History for Owosso, MI

Change the Weather History Date:

Wednesday, May 15, 2013

  Actual Average (KFNT) Record (KFNT)
Temperature  
Mean Temperature 68 °F 56 °F  
Max Temperature 80 °F 68 °F 90 °F (1962)
Min Temperature 56 °F 45 °F 30 °F (1973)
Degree Days  
Heating Degree Days 0 9  
Month to date heating degree days 168  
Since 1 July heating degree days 6775  
Cooling Degree Days 3 1  
Month to date cooling degree days 7  
Year to date cooling degree days 11  
Growing Degree Days 18 (Base 50)    
Moisture  
Dew Point 44 °F    
Average Humidity 42    
Maximum Humidity 73    
Minimum Humidity 21    
Precipitation  
Precipitation 0.00 in 0.10 in 1.04 in (1922)
Month to date precipitation 1.48  
Year to date precipitation 9.39  
Snow  
Snow 0.00 in 0.00 in 0.00 in ()
Month to date snowfall 0.0  
Since 1 July snowfall 47.4  
Snow Depth -    
Sea Level Pressure  
Sea Level Pressure 29.70 in    
Wind  
Wind Speed 9 mph (WSW)    
Max Wind Speed 20 mph    
Max Gust Speed 28 mph    
Visibility 10 miles    
Events      
T = Trace of Precipitation, MM = Missing Value Source: NWS Daily Summary

Daily Weather History Graph

Daily Weather History Graph

Search for Another Location

Airport:

Trip Planner

Search our weather history database for the weather conditions in past years. The results will help you decide how hot, cold, wet, or windy it might be!

Date:

Astronomy

May. 15, 2013 Rise Set
Actual Time 6:13 AM EDT 8:53 PM EDT
Civil Twilight 5:40 AM EDT 9:26 PM EDT
Nautical Twilight 4:59 AM EDT 10:07 PM EDT
Astronomical Twilight 4:12 AM EDT 10:54 PM EDT
Moon 10:49 AM EDT (5/15) 12:38 AM EDT (5/15)
Length of Visible Light 15h 45m
Length of Day
14h 40m
Waxing Crescent, 26% of the Moon is Illuminated
May 15
Waxing Crescent
May 18
First Quarter
May 25
Full
May 31
Last Quarter
Jun 8
New

Hourly Weather History & Observations

Time (EDT) Temp. Dew Point Humidity Pressure Visibility Wind Dir Wind Speed Gust Speed Precip Events Conditions
12:15 AM 57.2 °F 48.7 °F 73% 29.73 in 10.0 mi ESE 3.5 mph - N/A   Clear
12:34 AM 56.7 °F 48.2 °F 73% 29.70 in 10.0 mi ESE 6.9 mph - N/A   Clear
12:55 AM 56.3 °F 47.7 °F 73% 29.69 in 10.0 mi ESE 6.9 mph - N/A   Clear
1:15 AM 56.3 °F 47.3 °F 72% 29.69 in 10.0 mi ESE 6.9 mph - N/A   Clear
1:34 AM 57.2 °F 47.3 °F 69% 29.66 in 10.0 mi SE 6.9 mph - N/A   Clear
1:55 AM 57.2 °F 47.7 °F 70% 29.65 in 10.0 mi ESE 6.9 mph - N/A   Clear
2:14 AM 57.2 °F 48.0 °F 71% 29.64 in 10.0 mi SE 5.8 mph - N/A   Clear
2:35 AM 57.6 °F 48.0 °F 70% 29.62 in 10.0 mi SE 5.8 mph - N/A   Clear
2:55 AM 58.3 °F 48.2 °F 69% 29.60 in 10.0 mi SE 4.6 mph - N/A   Scattered Clouds
3:14 AM 59.5 °F 48.6 °F 67% 29.59 in 10.0 mi SE 6.9 mph - N/A   Mostly Cloudy
3:35 AM 60.3 °F 48.9 °F 66% 29.59 in 10.0 mi SSE 6.9 mph - N/A   Scattered Clouds
3:55 AM 60.8 °F 49.3 °F 66% 29.58 in 10.0 mi SSE 5.8 mph - N/A   Clear
4:14 AM 61.3 °F 50.4 °F 67% 29.56 in 10.0 mi SSE 9.2 mph - N/A   Clear
4:35 AM 63.1 °F 51.8 °F 66% 29.56 in 10.0 mi South 6.9 mph - N/A   Clear
4:55 AM 63.9 °F 52.7 °F 67% 29.56 in 10.0 mi South 6.9 mph - N/A   Clear
5:14 AM 64.6 °F 54.0 °F 68% 29.55 in 10.0 mi SSW 6.9 mph - N/A   Clear
5:35 AM 66.0 °F 54.9 °F 67% 29.55 in 10.0 mi SSW 8.1 mph - N/A   Clear
5:54 AM 67.1 °F 55.2 °F 66% 29.55 in 10.0 mi SW 8.1 mph - N/A   Clear
6:14 AM 68.5 °F 55.2 °F 62% 29.55 in 10.0 mi SW 9.2 mph - N/A   Clear
6:35 AM 71.2 °F 54.3 °F 55% 29.56 in 10.0 mi WSW 12.7 mph 20.7 mph N/A   Clear
6:54 AM 71.8 °F 53.8 °F 53% 29.56 in 10.0 mi WSW 11.5 mph 23.0 mph N/A   Clear
7:15 AM 71.8 °F 53.1 °F 52% 29.58 in 10.0 mi WSW 12.7 mph 18.4 mph N/A   Clear
7:35 AM 72.0 °F 52.2 °F 50% 29.59 in 10.0 mi West 16.1 mph 20.7 mph N/A   Clear
7:54 AM 71.6 °F 51.8 °F 50% 29.61 in 10.0 mi West 15.0 mph 23.0 mph N/A   Clear
8:15 AM 71.6 °F 49.6 °F 46% 29.63 in 10.0 mi West 15.0 mph 24.2 mph N/A   Clear
8:35 AM 71.6 °F 49.6 °F 46% 29.64 in 10.0 mi West 13.8 mph 20.7 mph N/A   Clear
8:54 AM 72.1 °F 48.9 °F 44% 29.65 in 10.0 mi West 13.8 mph 20.7 mph N/A   Clear
9:15 AM 72.5 °F 47.7 °F 41% 29.66 in 10.0 mi West 12.7 mph 20.7 mph N/A   Clear
9:35 AM 73.0 °F 46.9 °F 39% 29.67 in 10.0 mi West 13.8 mph 20.7 mph N/A   Clear
9:54 AM 73.4 °F 46.2 °F 38% 29.67 in 10.0 mi West 12.7 mph - N/A   Clear
10:15 AM 73.8 °F 45.9 °F 37% 29.68 in 10.0 mi West 13.8 mph 19.6 mph N/A   Clear
10:34 AM 73.9 °F 46.0 °F 37% 29.68 in 10.0 mi West 16.1 mph 21.9 mph N/A   Clear
11:15 AM 74.8 °F 45.1 °F 35% 29.70 in 10.0 mi West 16.1 mph 23.0 mph N/A   Clear
11:34 AM 75.2 °F 44.8 °F 34% 29.70 in 10.0 mi West 16.1 mph 20.7 mph N/A   Clear
11:55 AM 76.1 °F 44.8 °F 33% 29.72 in 10.0 mi West 16.1 mph 20.7 mph N/A   Clear
12:14 PM 76.1 °F 42.6 °F 30% 29.73 in 10.0 mi West 19.6 mph 26.5 mph N/A   Clear
12:35 PM 77.0 °F 42.6 °F 29% 29.74 in 10.0 mi West 18.4 mph 27.6 mph N/A   Clear
12:54 PM 77.0 °F 41.5 °F 28% 29.74 in 10.0 mi West 18.4 mph 26.5 mph N/A   Clear
1:14 PM 77.9 °F 41.0 °F 27% 29.75 in 10.0 mi WNW 19.6 mph 26.5 mph N/A   Clear
1:35 PM 78.6 °F 41.4 °F 26% 29.75 in 10.0 mi West 19.6 mph 25.3 mph N/A   Clear
1:54 PM 78.3 °F 41.9 °F 27% 29.75 in 10.0 mi West 15.0 mph 21.9 mph N/A   Clear
2:15 PM 78.8 °F 41.0 °F 26% 29.74 in 10.0 mi West 15.0 mph 24.2 mph N/A   Clear
2:35 PM 79.0 °F 41.2 °F 26% 29.74 in 10.0 mi NW 6.9 mph 18.4 mph N/A   Clear
2:54 PM 78.6 °F 41.2 °F 26% 29.75 in 10.0 mi West 13.8 mph 19.6 mph N/A   Scattered Clouds
3:15 PM 78.1 °F 41.2 °F 27% 29.75 in 10.0 mi NW 12.7 mph 17.3 mph N/A   Clear
3:35 PM 78.8 °F 39.7 °F 25% 29.75 in 10.0 mi WNW 12.7 mph 19.6 mph N/A   Clear
3:54 PM 80.1 °F 38.3 °F 22% 29.74 in 10.0 mi West 11.5 mph 19.6 mph N/A   Clear
4:15 PM 79.9 °F 39.7 °F 24% 29.75 in 10.0 mi WSW 10.4 mph 18.4 mph N/A   Clear
4:35 PM 80.2 °F 38.1 °F 22% 29.75 in 10.0 mi West 15.0 mph 20.7 mph N/A   Clear
4:54 PM 80.4 °F 38.1 °F 22% 29.75 in 10.0 mi WSW 12.7 mph 20.7 mph N/A   Clear
5:15 PM 80.6 °F 38.7 °F 22% 29.75 in 10.0 mi West 16.1 mph 19.6 mph N/A   Clear
5:34 PM 79.5 °F 37.6 °F 22% 29.75 in 10.0 mi West 13.8 mph 17.3 mph N/A   Clear
5:54 PM 79.9 °F 36.1 °F 21% 29.75 in 10.0 mi WSW 10.4 mph 19.6 mph N/A   Clear
6:15 PM 79.3 °F 37.0 °F 22% 29.76 in 10.0 mi West 12.7 mph 17.3 mph N/A   Clear
6:34 PM 78.8 °F 35.1 °F 21% 29.76 in 10.0 mi WSW 13.8 mph 18.4 mph N/A   Clear
6:55 PM 76.5 °F 34.9 °F 22% 29.74 in 10.0 mi WSW 6.9 mph - N/A   Clear
7:15 PM 77.4 °F 34.5 °F 21% 29.75 in 10.0 mi WSW 11.5 mph 16.1 mph N/A   Clear
7:34 PM 76.1 °F 34.2 °F 22% 29.76 in 10.0 mi West 10.4 mph - N/A   Clear
7:55 PM 74.8 °F 35.1 °F 23% 29.77 in 10.0 mi West 10.4 mph 16.1 mph N/A   Clear
8:15 PM 73.8 °F 34.9 °F 24% 29.77 in 10.0 mi West 10.4 mph - N/A   Clear
8:34 PM 73.4 °F 33.6 °F 23% 29.76 in 10.0 mi West 5.8 mph - N/A   Scattered Clouds
8:55 PM 71.2 °F 35.4 °F 27% 29.77 in 10.0 mi West 6.9 mph - N/A   Scattered Clouds
9:15 PM 69.8 °F 36.3 °F 29% 29.78 in 10.0 mi WNW 6.9 mph - N/A   Clear
9:34 PM 70.5 °F 35.1 °F 27% 29.79 in 10.0 mi West 6.9 mph - N/A   Clear
9:55 PM 68.9 °F 36.5 °F 30% 29.80 in 10.0 mi West 6.9 mph - N/A   Clear
10:14 PM 68.7 °F 36.5 °F 31% 29.81 in 10.0 mi WNW 6.9 mph - N/A   Clear
10:34 PM 68.2 °F 37.4 °F 32% 29.81 in 10.0 mi WNW 8.1 mph - N/A   Scattered Clouds
10:54 PM 66.2 °F 38.5 °F 36% 29.81 in 10.0 mi WNW 3.5 mph - N/A   Scattered Clouds
11:14 PM 64.0 °F 39.2 °F 40% 29.81 in 10.0 mi WNW 3.5 mph - N/A   Clear
11:35 PM 61.9 °F 40.1 °F 45% 29.81 in 10.0 mi Calm Calm - N/A   Clear
11:54 PM 59.0 °F 41.0 °F 51% 29.81 in 10.0 mi Calm Calm - N/A   Clear